User: anonymous   Login
Location: Unspecified
(0.0000°N, 0.0000°E)
Time: 04:21:20
(UTC+00:00)
Language:

Tiangong 1 - Orbit

View from above orbital plane
View from above orbital plane
View from above satellite
View from above satellite

Ground track
Ground track

The orbit data is extracted from the following two-line orbital elements,

1 37820U 11053A   15216.78791966  .00017159  00000-0  18604-3 0  9993
2 37820 042.7673 344.5829 0013637 356.0651 155.9425 15.63118703220923
Epoch (UTC): 04 August 2015 18:54:36
Eccentricity: 0.0013637
inclination: 42.7673°
perigee height: 369 km
apogee height: 388 km
right ascension of ascending node: 344.5829°
argument of perigee: 356.0651°
revolutions per day: 15.63118703
mean anomaly at epoch: 155.9425°
orbit number at epoch: 22092

The dashed part of the orbit path shows where the satellite is in the earth's shadow,  

DLR